Location: Palo Alto
(37.4420°N, 122.1420°W)
Time: 13:35:20
(UTC-07:00)

ISS - All Passes

Search period start: 25 July 2014 00:00
Search period end: 04 August 2014 00:00
Orbit: 411 x 420 km, 51.6° (Epoch: 25 July)

Date Brightness Start Highest point End Pass type
(mag) Time Alt. Az. Time Alt. Az. Time Alt. Az.
25 Jul - 00:37:59 10° SSW 00:40:52 27° SE 00:43:46 10° ENE night (unlit)
25 Jul - 02:14:33 10° W 02:17:32 29° NNW 02:20:32 10° NNE visible
25 Jul - 07:08:23 10° NNW 07:11:02 21° NNE 07:13:40 10° E daylight
25 Jul - 08:44:40 10° WNW 08:47:55 47° SW 08:51:09 10° SSE daylight
25 Jul - 23:50:15 10° SSE 23:52:15 15° SE 23:54:16 10° E night (unlit)
26 Jul - 01:25:25 10° WSW 01:28:40 48° NW 01:31:57 10° NE visible
26 Jul - 03:04:51 10° NW 03:06:03 12° NNW 03:07:16 10° N visible
26 Jul - 06:20:00 10° NNW 06:22:03 15° NNE 06:24:07 10° ENE daylight
26 Jul - 07:55:49 10° NW 07:59:12 89° NE 08:02:33 10° SE daylight
27 Jul - 00:36:33 10° SW 00:39:53 90° NW 00:43:15 10° NE night (unlit)
27 Jul - 02:14:58 10° WNW 02:17:01 15° NNW 02:19:05 10° NNE visible
27 Jul - 05:31:50 10° N 05:33:02 11° NNE 05:34:14 10° NE visible
27 Jul - 07:07:08 10° NW 07:10:25 48° NE 07:13:40 10° ESE daylight
27 Jul - 08:44:46 10° W 08:46:50 15° SW 08:48:53 10° SSW daylight
27 Jul - 23:47:59 10° SSW 23:51:11 46° SE 23:54:25 10° ENE night (unlit)
28 Jul - 01:25:26 10° W 01:28:04 21° NNW 01:30:43 10° NNE visible
28 Jul - 06:18:34 10° NNW 06:21:34 29° NNE 06:24:34 10° E daylight
28 Jul - 07:55:19 10° WNW 07:58:15 28° SW 08:01:10 10° SSE daylight
28 Jul - 22:59:48 10° S 23:02:34 24° SE 23:05:21 10° ENE night (unlit)
29 Jul - 00:36:08 10° W 00:39:11 32° NNW 00:42:14 10° NNE visible
29 Jul - 05:30:07 10° NNW 05:32:41 20° NNE 05:35:13 10° ENE visible
29 Jul - 07:06:19 10° WNW 07:09:37 53° SW 07:12:53 10° SE daylight
29 Jul - 22:12:18 10° SSE 22:14:00 13° SE 22:15:43 10° E night (unlit)
29 Jul - 23:47:06 10° WSW 23:50:22 54° NW 23:53:40 10° NE night (unlit)
30 Jul - 01:26:19 10° NW 01:27:43 12° NNW 01:29:06 10° N visible
30 Jul - 04:41:48 10° NNW 04:43:44 14° NNE 04:45:39 10° ENE visible
30 Jul - 06:17:32 10° NW 06:20:55 79° NE 06:24:16 10° SE daylight
30 Jul - 22:58:19 10° SW 23:01:38 81° SE 23:05:00 10° NE night (unlit)
31 Jul - 00:36:34 10° WNW 00:38:44 16° NNW 00:40:55 10° NNE visible
31 Jul - 03:53:45 10° N 03:54:44 11° NNE 03:55:42 10° NE visible
31 Jul - 05:28:55 10° NW 05:32:09 43° NE 05:35:23 10° ESE visible
31 Jul - 07:06:20 10° W 07:08:38 17° SW 07:10:55 10° S daylight
31 Jul - 22:09:51 10° SSW 22:12:59 41° SE 22:16:10 10° ENE night (unlit)
31 Jul - 23:47:06 10° W 23:49:49 23° NNW 23:52:33 10° NNE night (unlit)
01 Aug - 04:40:25 10° NNW 04:43:21 27° NNE 04:46:16 10° E visible
01 Aug - 06:17:03 10° WNW 06:20:04 31° SW 06:23:05 10° SSE daylight
01 Aug - 21:21:47 10° S 21:24:25 22° SE 21:27:04 10° ENE visible
01 Aug - 22:57:54 10° WSW 23:00:59 34° NNW 23:04:06 10° NE visible
02 Aug - 03:52:01 10° NNW 03:54:29 18° NNE 03:56:55 10° ENE visible
02 Aug - 05:28:08 10° WNW 05:31:27 61° SW 05:34:46 10° SE visible
02 Aug - 20:34:34 10° SSE 20:35:54 12° SE 20:37:14 10° ESE daylight
02 Aug - 22:08:57 10° WSW 22:12:14 60° NW 22:15:33 10° NE visible
02 Aug - 23:47:59 10° NW 23:49:32 13° NNW 23:51:05 10° N visible
03 Aug - 03:03:46 10° N 03:05:33 14° NNE 03:07:20 10° NE visible
03 Aug - 04:39:25 10° NW 04:42:47 71° NE 04:46:08 10° SE visible
03 Aug - 06:18:30 10° WSW 06:19:04 10° SW 06:19:38 10° SW daylight
03 Aug - 21:20:15 10° SW 21:23:33 72° SE 21:26:53 10° NE visible
03 Aug - 22:58:20 10° WNW 23:00:36 17° NNW 23:02:53 10° NNE visible
